Weather History for KABE - August, 2014

Change the Weather History Date:

Friday, August 29, 2014

  Actual Average Record
Temperature  
Mean Temperature 65 °F 70 °F  
Max Temperature 79 °F 81 °F 97 °F (1953)
Min Temperature 51 °F 59 °F 43 °F (1982)
Degree Days  
Heating Degree Days 0 1  
Month to date heating degree days 4 2  
Since 1 June heating degree days 8 38  
Since 1 July heating degree days 4 5  
Cooling Degree Days 0 5  
Month to date cooling degree days 170 204  
Year to date cooling degree days 670 669  
Since 1 June cooling degree days 631 624  
Growing Degree Days 15 (Base 50)    
Moisture  
Dew Point 51 °F    
Average Humidity 64    
Maximum Humidity 89    
Minimum Humidity 39    
Precipitation  
Precipitation 0.00 in 0.10 in 1.26 in (2013)
Month to date precipitation 1.85 3.48  
Year to date precipitation 33.87 29.56  
Snow  
Snow 0.00 in 0.00 in 0.00 in (2002)
Month to date snowfall 0.0 0.0  
Since 1 June snowfall 0.0 0.0  
Since 1 July snowfall 0.0 0.0  
Snow Depth 0.00 in    
Sea Level Pressure  
Sea Level Pressure 30.18 in    
Wind  
Wind Speed 3 mph (NNE)    
Max Wind Speed 10 mph    
Max Gust Speed 16 mph    
Visibility 10 miles    
Events      
T = Trace of Precipitation, MM = Missing Value Source: NWS Daily Summary

Daily Weather History Graph

Daily Weather History Graph

Search for Another Location

Airport or City:

Trip Planner

Search our weather history database for the weather conditions in past years. The results will help you decide how hot, cold, wet, or windy it might be!

Date:

Astronomy

Aug. 29, 2014 Rise Set
Actual Time 6:25 AM EDT 7:38 PM EDT
Civil Twilight 5:57 AM EDT 8:06 PM EDT
Nautical Twilight 5:23 AM EDT 8:40 PM EDT
Astronomical Twilight 4:48 AM EDT 9:15 PM EDT
Moon 10:14 AM EDT (8/29) 9:33 PM EDT (8/29)
Length of Visible Light 14h 09m
Length of Day
13h 12m
Waxing Crescent, 15% of the Moon is Illuminated
Aug 29
Waxing Crescent
Sep 2
First Quarter
Sep 8
Full
Sep 15
Last Quarter
Sep 24
New

Hourly Weather History & Observations

Time (EDT) Temp. Dew Point Humidity Pressure Visibility Wind Dir Wind Speed Gust Speed Precip Events Conditions
12:51 AM 60.1 °F 46.9 °F 62% 30.12 in 10.0 mi NNW 4.6 mph - N/A   Clear
1:51 AM 57.9 °F 46.9 °F 67% 30.12 in 10.0 mi Calm Calm - N/A   Clear
2:51 AM 57.0 °F 48.0 °F 72% 30.11 in 10.0 mi Calm Calm - N/A   Clear
3:51 AM 55.0 °F 48.0 °F 77% 30.12 in 10.0 mi West 3.5 mph - N/A   Clear
4:51 AM 52.0 °F 48.0 °F 86% 30.13 in 10.0 mi NNW 4.6 mph - N/A   Clear
5:51 AM 52.0 °F 48.0 °F 86% 30.15 in 10.0 mi West 3.5 mph - N/A   Clear
6:51 AM 52.0 °F 48.0 °F 86% 30.18 in 10.0 mi Calm Calm - N/A   Clear
7:51 AM 57.0 °F 51.1 °F 81% 30.20 in 10.0 mi Calm Calm - N/A   Clear
8:51 AM 63.0 °F 52.0 °F 67% 30.21 in 10.0 mi Calm Calm - N/A   Clear
9:51 AM 66.0 °F 53.1 °F 63% 30.21 in 10.0 mi North 4.6 mph - N/A   Clear
10:51 AM 69.8 °F 51.8 °F 53% 30.21 in 10.0 mi Calm Calm - N/A   Clear
11:51 AM 73.9 °F 52.0 °F 46% 30.20 in 10.0 mi Variable 3.5 mph - N/A   Clear
12:51 PM 75.0 °F 52.0 °F 44% 30.19 in 10.0 mi NNW 5.8 mph - N/A   Partly Cloudy
1:51 PM 75.0 °F 50.0 °F 41% 30.19 in 10.0 mi Calm Calm - N/A   Clear
2:51 PM 75.9 °F 51.1 °F 42% 30.17 in 10.0 mi Calm Calm - N/A   Clear
3:51 PM 78.1 °F 51.1 °F 39% 30.17 in 10.0 mi NW 4.6 mph - N/A   Clear
4:51 PM 78.1 °F 52.0 °F 40% 30.16 in 10.0 mi North 4.6 mph - N/A   Clear
5:51 PM 78.8 °F 51.8 °F 39% 30.17 in 10.0 mi East 6.9 mph - N/A   Clear
6:51 PM 77.0 °F 50.0 °F 39% 30.17 in 10.0 mi East 3.5 mph - N/A   Clear
7:51 PM 73.9 °F 50.0 °F 43% 30.17 in 10.0 mi SE 4.6 mph - N/A   Clear
8:51 PM 72.0 °F 51.1 °F 48% 30.20 in 10.0 mi SE 4.6 mph - N/A   Clear
9:51 PM 68.0 °F 54.0 °F 61% 30.22 in 10.0 mi SE 6.9 mph - N/A   Clear
10:51 PM 66.2 °F 57.2 °F 73% 30.24 in 10.0 mi South 6.9 mph - N/A   Clear
11:51 PM 66.9 °F 55.9 °F 68% 30.24 in 10.0 mi South 4.6 mph - N/A   Clear